Regional Weather Roundup
Issued by NWS

Home | Current Version | Previous Version | Text Only | Print | Product List | Glossary Off
Versions: 1 2 3 4 5 6 7 8 9 10 11 12 13 14 15 16 17 18 19 20 21 22 23 24 25 26 27 28 29 30 31 32 33 34 35 36 37 38 39 40 41 42 43 44 45 46 47 48 49 50

000
ASUS43 KIND 272359
RWRIN

WEATHER ROUNDUP FOR INDIANA
NATIONAL WEATHER SERVICE INDIANAPOLIS IN
800 PM EDT WED MAY 27 2015

NOTE: "FAIR" INDICATES FEW OR NO CLOUDS BELOW 12,000 FEET WITH NO
SIGNIFICANT WEATHER AND/OR OBSTRUCTIONS TO VISIBILITY.

* - STATION DOES NOT REPORT WEATHER SUCH AS PRECIPITATION OR FOG.

+ - STATION NOT QUALITY CONTROLLED BY THE NATIONAL WEATHER SERVICE.
    USE DATA WITH CAUTION...ESPECIALLY DEWPOINT AND RELATIVE
    HUMIDITY OBSERVATIONS.

INZ001>003-010>013-019-020-280100-
NORTHWEST INDIANA

CITY           SKY/WX    TMP DP  RH WIND       PRES   REMARKS
GARY /AIRPORT/ MOSUNNY   70  55  60 N7        30.05S
RENSSELAER +   SUNNY     73  55  53 NW12      30.05R

$$

LMZ046-743>745-280100-
SOUTHERN LAKE MICHIGAN

STATION/POSITION TIME  TEMP    WIND        PRES    WAVE
                       AIR SEA DIR/SP/G            HT
                 (UTC) (F)     (DEG/KT/KT) (MB)    (FT)
BURNS HARBOR     2300   63      50/  4/  9 1018.3R
MICHIGAN CITY    2300   63     340/  1/  1   N/A
5NW MICH CITY    2300   56 53  180/  2/  2   N/A     1

$$

INZ004-005-014>016-021>024-280100-
NORTH CENTRAL INDIANA

CITY           SKY/WX    TMP DP  RH WIND       PRES   REMARKS
ELKHART        SUNNY     68  55  64 W8        30.04S
GOSHEN         MOSUNNY   69  59  70 NW9       30.04R
6HR MIN TEMP:  65; 6HR MAX TEMP:  74; 6HR PCP: TRACE;

SOUTH BEND     MOSUNNY   69  56  62 NW13      30.05R
6HR MIN TEMP:  69; 6HR MAX TEMP:  75;


$$

INZ006>009-017-018-025>027-280100-
NORTHEAST INDIANA

CITY           SKY/WX    TMP DP  RH WIND       PRES   REMARKS
ANGOLA *+      CLOUDY    72  64  78 NW6       30.02R
FORT WAYNE     MOCLDY    72  63  73 SW6       30.04R
6HR MIN TEMP:  67; 6HR MAX TEMP:  76; 6HR PCP:  0.31;


$$

INZ028-029-035-036-043>045-051>053-280100-
WEST CENTRAL INDIANA

CITY           SKY/WX    TMP DP  RH WIND       PRES   REMARKS
CRAWFORDSVL +  MOSUNNY   75  55  48 W8        30.06R
6HR MIN TEMP:  66; 6HR MAX TEMP:  80; 6HR PCP:  0.05;

GREENCASTLE +  CLOUDY    75  55  50 CALM      30.07R
LAFAYETTE      SUNNY     75  57  53 NW9       30.04R
6HR MIN TEMP:  72; 6HR MAX TEMP:  78; 6HR PCP:  0.02;

TERRE HAUTE    CLOUDY    79  60  52 W9        30.05R
6HR MIN TEMP:  77; 6HR MAX TEMP:  83; 6HR PCP: TRACE;


$$

INZ030>032-037>040-046>048-054>057-064-065-280100-
CENTRAL INDIANA

CITY           SKY/WX    TMP DP  RH WIND       PRES   REMARKS
GREENWOOD *+   CLOUDY    77  54  44 SW7       30.07R
INDIANAPOLIS   CLOUDY    71  63  75 NW10      30.06R
6HR MIN TEMP:  71; 6HR MAX TEMP:  81; 6HR PCP: TRACE;

-EAGLE CREEK   LGT RAIN  69  65  86 NW6       30.07R
6HR MIN TEMP:  68; 6HR MAX TEMP:  82; 6HR PCP:  0.03;

KOKOMO *+      MOSUNNY   73  64  73 SW6       30.04R
6HR MIN TEMP:  68; 6HR MAX TEMP:  82; 6HR PCP:  0.23;

MT COMFORT *+  CLOUDY    73  54  49 NW13      30.07R
SHELBYVILLE    CLOUDY    79  62  56 SW9       30.05R
6HR MIN TEMP:  79; 6HR MAX TEMP:  83;


$$

INZ033-034-041-042-049-050-058-059-280100-
EAST CENTRAL INDIANA

CITY           SKY/WX    TMP DP  RH WIND       PRES   REMARKS
MUNCIE         CLOUDY    72  64  76 NW8       30.06R
6HR MIN TEMP:  71; 6HR MAX TEMP:  83; 6HR PCP:  0.04;


$$

INZ060-061-067>069-081>083-085>088-280100-
SOUTHWEST INDIANA

CITY           SKY/WX    TMP DP  RH WIND       PRES   REMARKS
EVANSVILLE     CLOUDY    75  63  66 S5        30.10R
6HR MIN TEMP:  75; 6HR MAX TEMP:  80;

HUNTINGBURG *+ CLOUDY    73  63  68 S6        30.11R
6HR MIN TEMP:  73; 6HR MAX TEMP:  79;


$$

INZ062-063-066-070>080-084-089>092-280100-
SOUTH CENTRAL AND SOUTHEAST INDIANA

CITY           SKY/WX    TMP DP  RH WIND       PRES   REMARKS
BLOOMINGTON    CLOUDY    78  61  55 SW6       30.07S
6HR MIN TEMP:  78; 6HR MAX TEMP:  82;

MADISON *+     CLOUDY    70  61  73 S8        30.13S
SEYMOUR +      CLOUDY    77  63  61 S13       30.08R

$$



USA.gov is the U.S. government's official web portal to all federal, state and local government web resources and services.